Time,TemperatureF,DewpointF,PressureIn,WindDirection,WindDirectionDegrees,WindSpeedMPH,WindSpeedGustMPH,Humidity,HourlyPrecipIn,Conditions,Clouds,dailyrainin,SolarRadiationWatts/m^2,SoftwareType,DateUTC
2013-05-21 00:01:00,41.0,10.0,-100.00,North,3,0.0,0.0,27,0.00,,,-99.99,0.000000,,2013-05-21 07:01:00,
2013-05-21 00:11:00,41.0,10.0,-100.00,North,3,0.0,0.0,27,0.00,,,-99.99,0.000000,,2013-05-21 07:11:00,
2013-05-21 00:21:00,41.0,10.0,-100.00,North,3,0.0,0.0,27,0.00,,,-99.99,0.000000,,2013-05-21 07:21:00,
2013-05-21 00:31:00,41.0,10.0,-100.00,North,3,0.0,0.0,27,0.00,,,-99.99,0.000000,,2013-05-21 07:31:00,
2013-05-21 02:01:00,43.0,10.0,-100.00,North,355,0.0,0.0,25,-99.99,,,0.00,0.000000,,2013-05-21 09:01:00,
2013-05-21 02:11:00,43.0,10.0,-100.00,North,355,0.0,0.0,25,-99.99,,,0.00,0.000000,,2013-05-21 09:11:00,
2013-05-21 02:21:00,43.0,10.0,-100.00,North,355,0.0,0.0,25,-99.99,,,0.00,0.000000,,2013-05-21 09:21:00,
2013-05-21 02:32:00,43.0,10.0,-100.00,North,355,0.0,0.0,25,-99.99,,,0.00,0.000000,,2013-05-21 09:32:00,
2013-05-21 02:53:00,39.0,6.0,-100.00,NNW,343,0.0,0.0,25,0.00,,,0.00,0.000000,,2013-05-21 09:53:00,
2013-05-21 03:02:00,39.0,6.0,-100.00,NNW,343,0.0,0.0,25,0.00,,,0.00,0.000000,,2013-05-21 10:02:00,
2013-05-21 03:12:00,39.0,6.0,-100.00,NNW,343,0.0,0.0,25,0.00,,,0.00,0.000000,,2013-05-21 10:12:00,
2013-05-21 03:22:00,39.0,6.0,-100.00,NNW,343,0.0,0.0,25,0.00,,,0.00,0.000000,,2013-05-21 10:22:00,
2013-05-21 03:32:00,39.0,6.0,-100.00,NNW,343,0.0,0.0,25,0.00,,,0.00,0.000000,,2013-05-21 10:32:00,
2013-05-21 04:02:00,39.0,10.0,-100.00,NNW,340,0.0,0.0,30,0.00,,,0.00,0.000000,,2013-05-21 11:02:00,
2013-05-21 04:11:00,39.0,10.0,-100.00,NNW,340,0.0,0.0,30,0.00,,,0.00,0.000000,,2013-05-21 11:11:00,
2013-05-21 04:21:00,39.0,10.0,-100.00,NNW,340,0.0,0.0,30,0.00,,,0.00,0.000000,,2013-05-21 11:21:00,
2013-05-21 04:31:00,39.0,10.0,-100.00,NNW,340,0.0,0.0,30,0.00,,,0.00,0.000000,,2013-05-21 11:31:00,
2013-05-21 05:01:00,38.0,8.0,-100.00,North,350,0.0,0.0,28,0.00,,,-99.99,0.000000,,2013-05-21 12:01:00,
2013-05-21 05:11:00,38.0,8.0,-100.00,North,350,0.0,0.0,28,0.00,,,-99.99,0.000000,,2013-05-21 12:11:00,
2013-05-21 05:21:00,38.0,8.0,-100.00,North,350,0.0,0.0,28,0.00,,,-99.99,0.000000,,2013-05-21 12:21:00,
2013-05-21 05:31:00,38.0,8.0,-100.00,North,350,0.0,0.0,28,0.00,,,-99.99,0.000000,,2013-05-21 12:31:00,
2013-05-21 06:01:00,40.0,10.0,-100.00,North,4,0.0,0.0,28,0.00,,,0.00,0.000000,,2013-05-21 13:01:00,
2013-05-21 06:11:00,40.0,10.0,-100.00,North,4,0.0,0.0,28,0.00,,,0.00,0.000000,,2013-05-21 13:11:00,
2013-05-21 06:22:00,40.0,10.0,-100.00,North,4,0.0,0.0,28,0.00,,,0.00,0.000000,,2013-05-21 13:22:00,
2013-05-21 06:31:00,40.0,10.0,-100.00,North,4,0.0,0.0,28,0.00,,,0.00,0.000000,,2013-05-21 13:31:00,
2013-05-21 07:01:00,40.0,10.0,-100.00,North,353,0.0,0.0,28,0.00,,,0.00,21.000000,,2013-05-21 14:01:00,
2013-05-21 08:01:00,54.0,22.0,-100.00,SSW,193,0.0,0.0,29,0.00,,,0.00,111.000000,,2013-05-21 15:01:00,
2013-05-21 08:11:00,54.0,22.0,-100.00,SSW,193,0.0,0.0,29,0.00,,,0.00,111.000000,,2013-05-21 15:11:00,
2013-05-21 08:21:00,54.0,22.0,-100.00,SSW,193,0.0,0.0,29,0.00,,,0.00,111.000000,,2013-05-21 15:21:00,
2013-05-21 08:33:00,54.0,22.0,-100.00,SSW,193,0.0,0.0,29,0.00,,,0.00,111.000000,,2013-05-21 15:33:00,
2013-05-21 09:02:00,67.0,22.0,-100.00,South,183,3.0,8.0,18,0.00,,,0.00,517.000000,,2013-05-21 16:02:00,
2013-05-21 10:02:00,74.0,23.0,-100.00,South,187,3.0,9.0,15,0.00,,,0.00,779.000000,,2013-05-21 17:02:00,
2013-05-21 10:52:00,76.0,20.0,-100.00,SSW,199,4.0,11.0,12,-99.99,,,0.00,990.000000,,2013-05-21 17:52:00,
2013-05-21 11:01:00,76.0,20.0,-100.00,SSW,199,4.0,11.0,12,-99.99,,,0.00,990.000000,,2013-05-21 18:01:00,
2013-05-21 12:01:00,77.0,18.0,-100.00,SE,129,4.0,12.0,11,-99.99,,,0.00,1166.000000,,2013-05-21 19:01:00,
2013-05-21 13:03:00,75.0,19.0,-100.00,South,171,4.0,12.0,12,-99.99,,,0.00,1175.000000,,2013-05-21 20:03:00,
2013-05-21 13:52:00,74.0,26.0,-100.00,SSW,198,5.0,14.0,17,-99.99,,,0.00,1178.000000,,2013-05-21 20:52:00,
2013-05-21 14:02:00,74.0,26.0,-100.00,SSW,198,5.0,14.0,17,-99.99,,,0.00,1178.000000,,2013-05-21 21:02:00,
2013-05-21 15:02:00,76.0,23.0,-100.00,South,189,5.0,14.0,14,-99.99,,,0.00,1182.000000,,2013-05-21 22:02:00,
2013-05-21 15:53:00,75.0,24.0,-100.00,SW,235,5.0,15.0,15,-99.99,,,0.00,1075.000000,,2013-05-21 22:53:00,
2013-05-21 16:02:00,75.0,24.0,-100.00,SW,235,5.0,15.0,15,-99.99,,,0.00,1075.000000,,2013-05-21 23:02:00,
2013-05-21 17:01:00,74.0,23.0,-100.00,SSW,192,5.0,11.0,15,-99.99,,,0.00,902.000000,,2013-05-22 00:01:00,
2013-05-21 17:52:00,68.0,25.0,-100.00,South,186,3.0,11.0,20,0.00,,,0.00,601.000000,,2013-05-22 00:52:00,
2013-05-21 18:01:00,68.0,25.0,-100.00,South,186,3.0,11.0,20,0.00,,,0.00,601.000000,,2013-05-22 01:01:00,
2013-05-21 18:11:00,68.0,25.0,-100.00,South,186,3.0,11.0,20,0.00,,,0.00,601.000000,,2013-05-22 01:11:00,
2013-05-21 18:21:00,68.0,25.0,-100.00,South,186,3.0,11.0,20,0.00,,,0.00,601.000000,,2013-05-22 01:21:00,
2013-05-21 18:31:00,68.0,25.0,-100.00,South,186,3.0,11.0,20,0.00,,,0.00,601.000000,,2013-05-22 01:31:00,
2013-05-21 18:52:00,64.0,27.0,-100.00,South,183,2.0,10.0,25,0.00,,,0.00,58.000000,,2013-05-22 01:52:00,
2013-05-21 19:01:00,64.0,27.0,-100.00,South,183,2.0,10.0,25,0.00,,,0.00,58.000000,,2013-05-22 02:01:00,
2013-05-21 19:11:00,64.0,27.0,-100.00,South,183,2.0,10.0,25,0.00,,,0.00,58.000000,,2013-05-22 02:11:00,
2013-05-21 19:21:00,64.0,27.0,-100.00,South,183,2.0,10.0,25,0.00,,,0.00,58.000000,,2013-05-22 02:21:00,
2013-05-21 19:32:00,64.0,27.0,-100.00,South,183,2.0,10.0,25,0.00,,,0.00,58.000000,,2013-05-22 02:32:00,
2013-05-21 20:01:00,57.0,30.0,-100.00,South,188,0.0,8.0,35,0.00,,,0.00,24.000000,,2013-05-22 03:01:00,
2013-05-21 20:11:00,57.0,30.0,-100.00,South,188,0.0,8.0,35,0.00,,,0.00,24.000000,,2013-05-22 03:11:00,
2013-05-21 20:21:00,57.0,30.0,-100.00,South,188,0.0,8.0,35,0.00,,,0.00,24.000000,,2013-05-22 03:21:00,
2013-05-21 20:33:00,57.0,30.0,-100.00,South,188,0.0,8.0,35,0.00,,,0.00,24.000000,,2013-05-22 03:33:00,
2013-05-21 20:53:00,52.0,28.0,-100.00,South,171,0.0,4.0,39,0.00,,,0.00,2.000000,,2013-05-22 03:53:00,
2013-05-21 21:03:00,52.0,28.0,-100.00,South,171,0.0,4.0,39,0.00,,,0.00,2.000000,,2013-05-22 04:03:00,
2013-05-21 21:12:00,52.0,28.0,-100.00,South,171,0.0,4.0,39,0.00,,,0.00,2.000000,,2013-05-22 04:12:00,
2013-05-21 21:22:00,52.0,28.0,-100.00,South,171,0.0,4.0,39,0.00,,,0.00,2.000000,,2013-05-22 04:22:00,
2013-05-21 21:33:00,52.0,28.0,-100.00,South,171,0.0,4.0,39,0.00,,,0.00,2.000000,,2013-05-22 04:33:00,
2013-05-21 22:02:00,52.0,23.0,-100.00,South,191,0.0,8.0,32,0.00,,,0.00,0.000000,,2013-05-22 05:02:00,
2013-05-21 22:52:00,50.0,23.0,-100.00,WSW,249,0.0,10.0,34,0.00,,,0.00,0.000000,,2013-05-22 05:52:00,
2013-05-21 23:01:00,50.0,23.0,-100.00,WSW,249,0.0,10.0,34,0.00,,,0.00,0.000000,,2013-05-22 06:01:00,
2013-05-21 23:11:00,50.0,23.0,-100.00,WSW,249,0.0,10.0,34,0.00,,,0.00,0.000000,,2013-05-22 06:11:00,
2013-05-21 23:21:00,50.0,23.0,-100.00,WSW,249,0.0,10.0,34,0.00,,,0.00,0.000000,,2013-05-22 06:21:00,
2013-05-21 23:31:00,50.0,23.0,-100.00,WSW,249,0.0,10.0,34,0.00,,,0.00,0.000000,,2013-05-22 06:31:00,
2013-05-21 23:52:00,48.0,24.0,-100.00,ENE,76,0.0,4.0,38,0.00,,,0.00,0.000000,,2013-05-22 06:52:00,